Terminal Aerodrome Forecast
Issued by NWS Twin Cities, MN

Home | Current Version | Previous Version | Graphics & Text | Print | Product List | Glossary On
Versions: 1 2 3 4 5 6 7 8 9 10 11 12 13 14 15 16 17 18 19 20 21 22 23 24 25 26
000
FTUS43 KMPX 131700
TAFMSP
TAF
KMSP 131739Z 1318/1424 19012G18KT P6SM SCT060
     FM140000 17009KT P6SM FEW060 SCT110
     FM141300 22007KT P6SM SCT200
     FM141800 28010KT P6SM BKN200=

USA.gov is the U.S. government's official web portal to all federal, state and local government web resources and services.